AirNav  
 
 423 users online  

21ID Phillabaum Heliport
Nordman, Idaho, USA


FAA INFORMATION EFFECTIVE 09 NOVEMBER 2017

Location

FAA Identifier: 21ID
Lat/Long: 48-37-53.0000N / 116-52-16.0000W
48-37.883333N / 116-52.266667W
48.6313889 / -116.8711111
(estimated)
Elevation: 2440 ft. / 744 m (estimated)
From city: 3 miles E of NORDMAN, ID
Time zone: UTC -8 (UTC -7 during Daylight Saving Time)
Zip code: 83848

Heliport Operations

Heliport use: Private use. Permission required prior to landing
Activation date: 02/2012
Control tower: no
ARTCC: SEATTLE CENTER
FSS: BOISE FLIGHT SERVICE STATION
Attendance: UNATNDD
Wind indicator: yes
Segmented circle: no

Nearby radio navigation aids

NDB name  Hdg/Dist  Freq  Var  ID
IONE081/22.037921EION .. --- -.
SANDPOE315/23.826414ESZT ... --.. -

Heliport Services

Runway Information

Helipad H1

Dimensions: 30 x 12 ft. / 9 x 4 m
Surface: concrete, in good condition
Traffic pattern: leftleft

Heliport Ownership and Management from official FAA records

Ownership: Privately-owned
Owner: STEPHEN PHILLABAUM
2121 W. DENISON RD
DEER PARK, ID 99006
Phone 509-838-6055
Manager: STEPHEN PHILLABAUM
2121 W. DENISON RD
DEER PARK, ID 99006
Phone 509-838-6055

Instrument Procedures

There are no published instrument procedures at 21ID.

Some nearby airports with instrument procedures:

KSZT - Sandpoint Airport (23 nm SE)
65S - Boundary County Airport (24 nm E)
KDEW - Deer Park Airport (46 nm SW)
KCOE - Coeur d'Alene Airport - Pappy Boyington Field (51 nm S)
S59 - Libby Airport (59 nm E)
 
Loc | Ops | Rwys | IFR | FBO | Links
Com | Nav | Svcs | Stats | Notes


 
Aerial photo
No photo
 
Airport distance calculator
Flying to Phillabaum Heliport? Find the distance to fly.

From to 21ID

Sunrise and sunset
Times for 25-Nov-2017
 Local
(UTC-8)
 Zulu
(UTC)
Morning civil twilight06:3614:36
Sunrise07:1215:12
Sunset15:5723:57
Evening civil twilight16:3300:33

Current date and time
Zulu (UTC)  25-Nov-2017 12:05:32
Local (UTC-8)  25-Nov-2017 04:05:32
 
METAR
KSZT 
23nm SE 
251155Z AUTO 21004KT 10SM BKN046 02/01 A3014 RMK AO2
K65S 
24nm E 
251155Z AUTO 00000KT 10SM BKN044 OVC050 04/00 A3011 RMK AO2
CWJR 
30nm NE 
251100Z AUTO 07002KT 04/02 RMK AO1 SLP219 T00390016 50002
KDEW 
46nm SW 
251153Z AUTO 00000KT 10SM CLR M02/M02 A3014 RMK AO2 SLP224 I1000 I6000 T10171022 10044 21022 51000
TAF
CYCG 
49nm NW 
241838Z 2419/2501 15008KT P6SM SCT040 BKN110 TEMPO 2419/2421 P6SM -SHRA BKN040 OVC080 FM242100 16008KT P6SM SCT020 BKN040 TEMPO 2421/2501 5SM -SHRA BR BKN020 OVC040 RMK NXT FCST WILL BE ISSUED AT 251545Z
NOTAMs
Click for the latest NOTAMs
NOTAMs are issued by the DoD/FAA and will open in a separate window not controlled by AirNav.

 

 
 

Would you like to see your business listed on this page?

 If your business provides an interesting product or service to pilots, flight crews, aircraft, or users of the Phillabaum Heliport, you should consider listing it here.  To start the listing process, click on the button below
 
Add a business
 

Other Pages about Phillabaum Heliport

Update a link
 
Copyright © AirNav, LLC. All rights reserved. Privacy Policy  Contact